Regional Weather Roundup
Issued by NWS Little Rock, AR

Home | Current Version | Previous Version | Graphics & Text | Print | Product List | Glossary On
Versions: 1 2 3 4 5 6 7 8 9 10 11 12 13 14 15 16 17 18 19 20 21 22 23 24 25 26 27 28 29 30 31 32 33 34 35 36 37 38 39 40 41 42 43 44 45 46 47 48 49 50
000
ASUS44 KLZK 252305
RWRLZK

WEATHER ROUNDUP FOR ARKANSAS
NATIONAL WEATHER SERVICE LITTLE ROCK AR
500 PM CST SUN JAN 25 2015

NOTE: "FAIR" INDICATES FEW OR NO CLOUDS BELOW 12,000 FEET WITH NO
SIGNIFICANT WEATHER AND/OR OBSTRUCTIONS TO VISIBILITY.

ARZ001-003-010-029-260000-
NORTHWEST ARKANSAS

CITY           SKY/WX    TMP DP  RH WIND       PRES   REMARKS
FAYETTEVILLE   CLOUDY    43  32  65 NW15G25   29.95R
FORT SMITH     CLOUDY    51  32  48 NW15G24   29.96R
HARRISON       CLOUDY    40  33  76 NW17G31   29.88R
BENTONVILLE    CLOUDY    43  30  61 NW15G23   29.95R
ROGERS         CLOUDY    41  32  70 NW20      29.94R
SILOAM SPGS    CLOUDY    45  28  53 NW28      29.97R
HIGHFILL       LGT RAIN  43  32  65 NW13G28   29.94R
SPRINGDALE     CLOUDY    43  32  65 NW17G23   29.96R
$$

ARZ004-005-016-260000-
NORTH CENTRAL ARKANSAS

CITY           SKY/WX    TMP DP  RH WIND       PRES   REMARKS
BATESVILLE     CLOUDY    45  32  61 W12G25    29.83R
FLIPPIN        CLOUDY    41  30  65 NW16G26   29.87R
MTN HOME       CLOUDY    40  34  79 NW13G25   29.85R
$$

ARZ040-041-260000-
WEST CENTRAL ARKANSAS

CITY           SKY/WX    TMP DP  RH WIND       PRES   REMARKS
MENA           CLOUDY    54  32  43 W18G28    29.95R
MOUNT IDA      CLOUDY    52  31  44 NW13G25   29.89R
$$

ARZ009-017-025-026-028-260000-
NORTHEAST ARKANSAS

CITY           SKY/WX    TMP DP  RH WIND       PRES   REMARKS
JONESBORO      CLOUDY    47  37  68 W22G31    29.77R
NEWPORT        CLOUDY    46  35  65 W30G36    29.82R
WALNUT RIDGE   CLOUDY    46  34  61 W17G31    29.78R
BLYTHEVILLE    CLOUDY    48  41  76 W17       29.73R
$$

ARZ022-023-033-042-044-260000-
CENTRAL ARKANSAS

CITY           SKY/WX    TMP DP  RH WIND       PRES   REMARKS
LITTLE ROCK    CLOUDY    53  32  44 W24G32    29.86R
N LITTLE ROCK  CLOUDY    50  37  60 W12G28    29.86R
JACKSONVILLE   CLOUDY    51  34  52 W13G25    29.85R
SEARCY         CLOUDY    48  37  65 NW14G24   29.86R
HOT SPRINGS    CLOUDY    53  32  44 NW10G22   29.90R
RUSSELLVILLE   CLOUDY    50  32  50 NW16G29   29.89R
CLINTON        MOCLDY    45  34  65 NW10G20   29.89R
$$

ARZ036-260000-
EAST ARKANSAS

CITY           SKY/WX    TMP DP  RH WIND       PRES   REMARKS
WEST MEMPHIS   CLOUDY    49  41  74 NW10G18   29.77R
$$

ARZ050-053-066-070-073-260000-
SOUTHWEST ARKANSAS

CITY           SKY/WX    TMP DP  RH WIND       PRES   REMARKS
ARKADELPHIA    CLOUDY    56  35  45 NW16      29.92R
CAMDEN         CLOUDY    59  30  33 MISG      29.90R
TEXARKANA      MOCLDY    59  32  36 NW16G25   29.94R
EL DORADO      CLOUDY    59  33  37 W14G23    29.91R
DE QUEEN       LGT RAIN  56  32  40 NW16G22   29.96R
$$

ARZ056-057-069-260000-
SOUTHEAST ARKANSAS

CITY           SKY/WX    TMP DP  RH WIND       PRES   REMARKS
PINE BLUFF     CLOUDY    54  33  45 W21G30    29.87R
STUTTGART      CLOUDY    52  36  54 W23G35    29.84R
MONTICELLO     CLOUDY    57  32  38 NW16G25   29.86R

$$




USA.gov is the U.S. government's official web portal to all federal, state and local government web resources and services.